www.pogodaiklimat.ru

Погода и климат >> Архив погоды >> Филиппины >> База ВВС Clark


ПОГОДА на Базе ВВС Clark

  • Прогноз погоды на Базе ВВС Clark
  • Монитор погоды на Базе ВВС Clark

АРХИВ ПОГОДЫ на Базе ВВС Clark

Время (UTC), дата Ветер
(напр.,м/с)
 
Видим.   Явления Облачность Т
(С)
Тd
(С)
f
(%)
Тe
(С)
Тes
(С)
Комфортность P
(гПа)
Po
(гПа)
Тmin
(С)
Tmax
(С)
R
(мм)
R24
(мм)
S
(см)
03 12.08 З 2 8000 м мгла {туман} 8/5 600 м
[Cu med, cong Cs]
+31.3 +24.5 67 +44 +53 опасность
перегрева
1008.3 991.0
06 12.08 З 5 10 км осадки на расстоянии {туман} 9/5 600 м
[Cu med, cong Ac As]
+31.4 +24.1 65 +43 +45 опасность
перегрева
1006.6 989.4
09 12.08 ЮЗ 4 12 км осадки на расстоянии {туман} 9/5 600 м
[Sc diur, vesp Ac As]
+30.6 +24.4 70 +43 +43 опасность
перегрева
1006.4 989.1
12 12.08 Ю 1 10 км слаб. дождь {туман} 8/4 600 м
[Sc diur, vesp Ac As]
+27.3 +25.0 87 +39 +39 очень
душно
1007.9 990.6 +32.1 0.0
15 12.08 С 1 10 км мгла {туман} 8/4 600 м
[Sc diur, vesp Ac As]
+26.8 +24.4 87 +38 +38 очень
душно
1008.8 991.6 0.0
18 12.08 СЗ 1 10 км в посл. час дождь {туман} 10/5 600 м
[Sc diur, vesp Ac As]
+26.0 +25.5 97 +38 +38 очень
душно
1007.3 990.1 0.4
21 12.08 С 1 10 км слаб. дождь 10/5 600 м
[Sc diur, vesp Ac As]
+25.7 +25.5 99 +37 +37 очень
душно
1007.1 989.8 0.4
00 13.08 С 2 10 км слаб. дождь 9/5 600 м
[Sc diur, vesp Ac As]
+27.1 +26.5 97 +42 +43 опасность
перегрева
1007.8 990.5 +25.7 0.8
03 13.08 Ю 2 10 км слаб. дождь 10/5 600 м
[Sc diur, vesp Ac As]
+28.6 +26.1 86 +43 +46 опасность
перегрева
1007.9 990.6
06 13.08 Ю 5 12 км мгла {дождь, туман} 9/1 600 м
[Cu hum Ac As]
+30.2 +25.5 76 +44 +47 опасность
перегрева
1006.7 989.4
09 13.08 Ю 2 18 км мгла {туман} 9/4 600 м
[Sc diur, vesp Ac As]
+30.4 +24.4 70 +42 +43 опасность
перегрева
1006.9 989.6
12 13.08 Ю 3 18 км мгла {туман} 9/4 600 м
[Sc diur, vesp Ac As]
+27.6 +24.5 83 +39 +39 очень
душно
1008.8 991.5 +30.5
15 13.08 СЗ 1 15 км мгла {туман} 9/4 600 м
[Sc diur, vesp Ac As]
+26.7 +25.0 90 +38 +38 очень
душно
1010.0 992.7
18 13.08 Ю 1 15 км в посл. час ливневой дождь {туман} 10/4 540 м
[Sc diur, vesp Ac As]
+25.6 +25.2 98 +37 +37 очень
душно
1007.8 990.5 2
21 13.08 Ю 1 8000 м дождь 10/5 450 м
[Sc As op]
+25.0 +25.0 100 +36 +36 очень
душно
1008.3 991.0 8
00 14.08 СВ 1 8000 м в посл. час ливневой дождь {туман} 9/3 600 м
[Cu hum Cs]
+26.5 +26.1 98 +40 +44 очень
душно
1009.4 992.0 +24.9 12
03 14.08 ЮВ 2 8000 м мгла {туман} 9/3 600 м
[Cu med, cong Cs]
+30.4 +25.5 75 +45 +57 опасность
перегрева
1008.7 991.4
06 14.08 З 7
{10}
10 км мгла {туман} 9/4 600 м
[Cu med, cong Ac As]
+32.5 +23.7 60 +44 +45 опасность
перегрева
1007.3 990.1 0.0
09 14.08 Ю 5
{9}
10 км мгла {туман} 8/4 600 м
[Cu med, cong Cs]
+30.9 +24.3 68 +43 +44 опасность
перегрева
1007.6 990.3
12 14.08 Ю 3 10 км мгла {туман} 8/4 600 м
[Cu med, cong Cs]
+27.5 +24.6 84 +39 +39 очень
душно
1009.4 992.0 +32.5 0.0
15 14.08 ЮЗ 2 12 км мгла {туман} 8/4 600 м
[Cu med, cong Cs]
+26.4 +24.7 90 +37 +37 очень
душно
1009.9 992.6
18 14.08 З 1 10 км мгла {туман} 9/4 600 м
[Cu med, cong Cs]
+26.0 +24.5 91 +36 +36 очень
душно
1008.3 991.1 0.0
21 14.08 СЗ 1 10 км мгла {туман} 8/3 600 м
[Cu med, cong Ac As]
+25.3 +24.2 94 +35 +35 очень
душно
1008.6 991.3
00 15.08 Ю 1 8000 м мгла {туман} 9/4 600 м
[Sc diur, vesp Ac As]
+27.9 +24.7 83 +40 +42 очень
душно
1009.5 992.2 +25.3 0.0
03 15.08 Ю 3 10 км осадки на расстоянии {туман} 9/5 540 м
[Sc diur, vesp Ac As]
+30.5 +25.7 76 +45 +49 опасность
перегрева
1009.3 992.0
06 15.08 Ю 6 12 км мгла {дождь, туман} 8/4 600 м
[Sc diur, vesp Cs]
+32.4 +26.2 70 +49 +52 опасность
перегрева
1007.5 990.3 1
09 15.08 Ю 3
{10}
10 км мгла {дождь, туман} 8/4 600 м
[Sc diur, vesp Cs]
+30.8 +24.8 70 +44 +44 опасность
перегрева
1008.1 990.8 0.0
12 15.08 Ю 3 12 км мгла {дождь, туман} 6/3 600 м
[Cu med, cong Cs]
+27.0 +24.1 84 +37 +37 очень
душно
1009.1 991.8 +32.4 0.0
15 15.08 Ю 1 15 км мгла {туман} 6/3 600 м
[Cu med, cong Cs]
+25.8 +23.8 89 +35 +35 очень
душно
1010.2 992.9
18 15.08 Ю 2 15 км мгла {туман} 6/3 600 м
[Cu hum Cs]
+24.9 +23.3 91 +33 +33 очень
душно
1009.4 992.0
21 15.08 ЮЗ 1 15 км мгла {туман} 6/1 600 м
[Cu hum Cs]
+24.6 +23.2 92 +33 +33 очень
душно
1009.3 992.0
00 16.08 С 1 8000 м осадки на расстоянии {туман} 8/4 540 м
[Sc diur, vesp Ac As]
+27.7 +24.6 83 +39 +42 очень
душно
1010.4 993.0 +24.5 1
03 16.08 С 2 15 км мгла {туман} 9/5 600 м
[Cu med, cong Ac As]
+31.2 +25.8 73 +46 +51 опасность
перегрева
1010.2 993.0
06 16.08 Ю 2 15 км мгла {туман} 8/5 600 м
[Cu med, cong Cs]
+33.2 +24.5 60 +46 +53 опасность
перегрева
1008.5 991.3
09 16.08 Ю 8 15 км мгла {туман} 6/3 600 м
[Cu med, cong Cs]
+31.6 +24.9 68 +45 +45 опасность
перегрева
1008.7 991.5
12 16.08 Ю 2 15 км мгла {туман} 6/3 600 м
[Cu med, cong Cs]
+27.8 +24.4 82 +39 +39 очень
душно
1010.2 993.0 +33.3
15 16.08 С 1 15 км мгла {туман} 6/3 600 м
[Cu med, cong Cs]
+26.6 +23.8 85 +37 +37 очень
душно
1012.0 994.7
18 16.08 С 2 15 км мгла {туман} 6/3 600 м
[Cu med, cong Cs]
+25.5 +23.9 91 +35 +35 очень
душно
1011.0 993.7
21 16.08 С 1 15 км мгла {туман} 6/3 600 м
[Cu hum Cs]
+25.4 +23.7 90 +35 +35 очень
душно
1010.7 993.4
00 17.08 С 1 12 км мгла {туман} 6/3 600 м
[Cu hum Cs]
+27.8 +25.1 85 +40 +45 очень
душно
1011.4 994.1 +25.3
03 17.08 С 2 12 км слаб. ливневой дождь {туман} 8/5 600 м
[Sc diur, vesp Ac As]
+30.6 +25.5 74 +45 +51 опасность
перегрева
1011.6 994.3 0.0
06 17.08 З 3 10 км мгла {туман} 6/4 600 м
[Cu med, cong Cs]
+32.2 +23.8 61 +44 +51 опасность
перегрева
1009.1 991.8 0.2
09 17.08 СЗ 4 10 км мгла {туман} 9/1 450 м
[Cb cap Cs]
+31.8 +23.5 62 +43 +44 опасность
перегрева
1008.1 990.5
12 17.08 Ю 1 8000 м мгла {туман} 9/4 600 м
[Sc diur, vesp Cs]
+29.1 +23.5 72 +40 +40 очень
душно
1011.4 994.1 +33.6
15 17.08 ЮЗ 1 10 км мгла {туман} 9/4 600 м
[Sc diur, vesp Ac trans]
+26.6 +24.2 87 +37 +37 очень
душно
1012.3 995.0
18 17.08 Ю 1 10 км мгла {туман} 10/4 600 м
[Sc diur, vesp Ac As]
+25.8 +24.0 90 +36 +36 очень
душно
1011.1 993.8
21 17.08 З 1 10 км мгла {туман} 10/4 600 м
[Sc diur, vesp Ac As]
+25.5 +23.8 90 +35 +35 очень
душно
1010.8 993.5
00 18.08 Ю 2 6000 м мгла {туман} 9/3 600 м
[Sc diur, vesp Ac trans]
+27.5 +24.7 85 +39 +41 очень
душно
1011.4 994.1 +25.4 0.2
03 18.08 Ю 1 6000 м мгла {туман} 9/4 600 м
[Cu med, cong Cs]
+31.1 +25.6 73 +46 +58 опасность
перегрева
1011.1 993.8
06 18.08 С 3 6000 м мгла {туман} 9/5 600 м
[Cu med, cong Cs]
+32.6 +24.5 62 +45 +51 опасность
перегрева
1008.2 991.0 0.0
09 18.08 СЗ 1 15 км в посл. час ливневой дождь {туман} 8/4 600 м
[Cu med, cong Cs]
+31.4 +24.0 65 +43 +44 опасность
перегрева
1007.5 990.2 0.0
12 18.08 З 2 15 км мгла {туман} 8/4 600 м
[Sc diur, vesp Ac As]
+28.5 +25.0 81 +41 +41 опасность
перегрева
1009.5 992.2 +33.6 0.0
15 18.08 ЮЗ 1 15 км мгла {туман} 6/3 600 м
[Sc diur, vesp Cs]
+26.7 +24.6 88 +38 +38 очень
душно
1010.8 993.5
18 18.08 ЮЗ 1 15 км мгла {туман} 6/1 600 м
[Cu hum Cs]
+25.7 +23.9 90 +35 +35 очень
душно
1009.1 991.9
21 18.08 З 1 15 км мгла {туман} 6/1 600 м
[Cu hum Cs]
+24.9 +23.7 93 +34 +34 очень
душно
1008.5 991.2

 

Местоположение метеостанции База ВВС Clark (Филиппины): широта 15.17 долгота 120.56 высота над уровнем моря 155 м.

В архиве по умолчанию представлена погода на Базе ВВС Clark за последнюю неделю. Архивные данные за месяц целиком и за предыдущие месяцы, начиная с января 2011 года, Вы можете получить, выбрав интересующий диапазон дат из раскрывающегося списка и нажав кнопку "Ввод!".


*Определитесь, кто Вы:
робот инопланетянин человек

Внимание! Время в таблицах - всемирное. Для получения местного времени необходимо прибавить поправку, которая равна 8 ч.

Смотрите также архив погоды в соседних городах и на ближайших метеорологических станциях:

Погода в Куби Пойнт (Филиппины) (52 км)
Погода в Кабанатуане (Филиппины) (55 км)
Погода в Ибе (Филиппины) (67 км)
Погода в Научном саду (Филиппины) (77 км)
Погода в Маниле (Филиппины) (80 км)
Погода в Сангли Пойнт (Филиппины) (83 км)
Погода в Аэропорту Ninoy Aquino (Филиппины) (86 км)
Погода в Дагупане (Филиппины) (101 км)
Погода в Танае (Филиппины) (113 км)
Погода в Инфанте (Филиппины) (126 км)

Пояснения к столбцам:

Ветер - указаны скорость ветра в м/с - средняя за 10 мин, порывы в срок и между сроками (в фигурных скобках) и направление, откуда дует ветер: С - северный, СВ - северо-восточный, В - восточный, ЮВ - юго-восточный, Ю - южный, ЮЗ - юго-западный, З - западный, СЗ - северо-западный.
Видимость - горизонтальная дальность видимости в метрах или километрах. При видимости от 1 до 10 км при отсутствии осадков обычно наблюдается дымка, при ухудшении видимости до 1 км и менее - туман. В сухую погоду видимость может ухудшаться дымом, пылью или мглою.
Явления - указаны атмосферные явления, наблюдавшиеся в срок или в последний час перед сроком; фигурными скобками обозначены явления, наблюдавшиеся между сроками (за 1-3 часа до срока); квадратными скобками обозначены град или гололедные отложения с указанием их диаметра в мм.
Облачность - указаны через наклонную черту общая и нижняя облачность в баллах и высота нижней границы облаков в метрах; квадратными скобками обозначены формы облаков: Ci - перистые, Cs - перисто-слоистые, Cc - перисто-кучевые, Ac - высококучевые, As - высокослоистые, Sc - слоисто-кучевые, Ns - слоисто-дождевые, Cu - кучевые, Cb - кучево-дождевые. Подробнее классификацию облаков см. в Атласе облаков (PDF).
T - Температура воздуха - температура, измеренная на высоте 2 м над землей.
Td - Температура точки росы - температура, при понижении до которой содержащийся в воздухе водяной пар достигнет насыщения.
f - Относительная влажность воздуха - влажноcть воздуха, измеренная на высоте 2 м над землей.
Te - Эффективная температура - температура, которую ощущает одетый по сезону человек в тени. Характеристика душности погоды. При расчете учитывается влияние влажности воздуха и скорости ветра на теплоощущения человека.
Tes - Эффективная температура на солнце - температура, которую ощущает человек, с поправкой на солнечный нагрев. Характеристика знойности погоды. Зависит от высоты солнца над горизонтом, облачности и скорости ветра. Ночью, в пасмурную погоду, а также при ветре 12 м/с и более поправка равна нулю.
P - Атмосферное давление - приведенное к уровню моря атмосферное давление.
Po - Атмосферное давление - измеренное на уровне метеостанции атмосферное давление.
Tmin - Минимальная температура - минимум температуры воздуха на высоте 2 м над землей.
Tmax - Максимальная температура - максимум температуры воздуха на высоте 2 м над землей.
R - Количество осадков - Количество выпавших осадков за период времени, мм. При наведении курсора мыши на число - период времени, за который выпало указанное количество осадков.
R24 - Количество осадков - Количество выпавших осадков за 24 часа, мм.
S - Снежный покров - Высота снежного покрова, см. При наведении курсора мыши на число - состояние снежного покрова и степень покрытия местности в баллах.